• MPC Preparation (Info)

  • MPEC 2019-A152: 2019 AM7

    The following Minor Planet Electronic Circular may be linked-to from your own Web pages, but must not otherwise be redistributed electronically.

    A form allowing access to any MPEC is at the bottom of this page.


    Read MPEC 2019-A151 Read MPEC 2019-A153


    M.P.E.C. 2019-A152                               Issued 2019 Jan. 10, 14:55 UT
    
         The Minor Planet Electronic Circulars contain information on unusual
             minor planets and routine data on comets.  They are published
        on behalf of Division F of the International Astronomical Union by the
              Minor Planet Center, Smithsonian Astrophysical Observatory,
                              Cambridge, MA 02138, U.S.A.
    
                 Prepared using the Tamkin Foundation Computer Network
    
                                  MPC@CFA.HARVARD.EDU
                URL https://www.minorplanetcenter.net/    ISSN 1523-6714
    
                                       2019 AM7
    
    Observations:
         K19A07M* C2019 01 07.47303 09 40 10.515+06 27 19.68         21.5 wUEA152F51
         K19A07M  C2019 01 07.48482 09 40 08.399+06 27 43.55         21.1 wUEA152F51
         K19A07M  C2019 01 07.49663 09 40 06.278+06 28 07.25         21.3 wUEA152F51
         K19A07M  C2019 01 08.38107 09 37 58.34 +06 56 20.0          21.2 GVEA152I52
         K19A07M  C2019 01 08.38557 09 37 57.59 +06 56 28.1          22.9 GVEA152I52
         K19A07M  C2019 01 08.39007 09 37 56.75 +06 56 36.8          22.3 GVEA152I52
         K19A07M  C2019 01 08.39256 09 37 56.37 +06 56 42.0          22.1 GVEA152I52
         K19A07M |C2019 01 10.24577 09 33 47.82 +07 52 28.3          20.8 VuEA152807
         K19A07M |C2019 01 10.25769 09 33 45.94 +07 52 48.0          20.8 VuEA152807
         K19A07M |C2019 01 10.26982 09 33 44.06 +07 53 08.1          20.8 VuEA152807
    
    Observer details:
    807 Cerro Tololo Observatory, La Serena.  Observers T. Linder, R. Holmes.
        0.61-m f/6.5 astrograph + CCD.
    F51 Pan-STARRS 1, Haleakala.  Observers J. Bulger, T. Lowe, A. Schultz,
        M. Willman.  Measurers K. Chambers, S. Chastel, L. Denneau, J. Fairlamb,
        H. Flewelling, M. Huber, C.-C. Lin, E. Magnier, Y. Ramanjooloo,
        R. Wainscoat, R. Weryk.  1.8-m Ritchey-Chretien + CCD.
    I52 Steward Observatory, Mt. Lemmon Station.  Observer A. R. Gibbs.
        Measurers B. M. Africano, E. J. Christensen, G. A. Farneth, D. C. Fuls,
        A. R. Gibbs, A. D. Grauer, H. Groeller, R. A. Kowalski, S. M. Larson,
        G. J. Leonard, R. L. Seaman, F. C. Shelly.  1.0-m reflector + CCD.
    
    Orbital elements:
    2019 AM7                                                 Earth MOID = 0.0040 AU
    Epoch 2019 Apr. 27.0 TT = JDT 2458600.5                 MPC
    M  61.94629              (2000.0)            P               Q
    n   0.40728765     Peri.  236.22680     +0.52785786     -0.84933263
    a   1.8024721      Node   181.91251     +0.78328870     +0.48699993
    e   0.4832007      Incl.    0.71021     +0.32836702     +0.20362996
    P   2.42           H   24.6           G   0.15           U   9
    Residuals in seconds of arc
    190107 F51  0.7+  0.4-    190108 I52  1.1+  0.7-    190110 807  0.1-  0.2-
    190107 F51  0.7+  0.3-    190108 I52  0.0   0.4-    190110 807  0.2+  0.3-
    190107 F51  0.8+  0.3-    190108 I52  0.7+  0.1+
    190108 I52  0.9+  0.3-    190110 807  0.2+  0.0
    
    Ephemeris:
    2019 AM7                 a,e,i = 1.80, 0.48, 1                   q = 0.9315
    Date    TT    R. A. (2000) Decl.     Delta      r     Elong.  Phase     V
    2018 12 11    18 23 36.3 -40 41 02   0.03804 0.9500    23.5   155.6    27.1
    ...
    2018 12 26    10 33 11.8 -06 47 37   0.04842 1.0015   110.6    66.8    20.4
    ...
    2019 01 03    09 52 46.3 +03 29 56   0.08151 1.0399   132.3    44.4    20.9
    ...
    2019 01 09    09 36 31.7 +07 15 50   0.1084  1.0725   143.6    33.0    21.3
    2019 01 10    09 34 18.5 +07 44 49   0.1130  1.0782   145.3    31.3    21.4
    2019 01 11    09 32 11.1 +08 12 03   0.1177  1.0840   147.0    29.6    21.4
    ...
    2019 01 17    09 21 06.6 +10 26 58   0.1471  1.1201   156.5    20.5    21.7
    ...
    2019 01 25    09 09 37.2 +12 35 35   0.1904  1.1712   167.9    10.2    22.0
    ...
    2019 02 09    08 56 02.5 +15 03 41   0.2886  1.2731   172.2     6.0    22.9
    
    A. U. Tomatic                (C) Copyright 2019 MPC           M.P.E.C. 2019-A152
    

    Read MPEC 2019-A151 Read MPEC 2019-A153


    MPEC number:

    Enter an MPEC number in one of the following forms:

    • 1997-B01 (the full form)
    • J97B01 (the packed version of the full form)
    • B01 (the abbreviated form)